Stündliche Wetter Kyzyl-Yar

Heute, 11 Mai, Dienstag

Zeit Temperatur Niederschläge Wind Luftdruck Luftfeuchtigkeit
00:00 +16°C° 0 mm 2 m/S 756 mmHg 54%
01:00 +15°C° 0 mm 2 m/S 756 mmHg 55%
02:00 +15°C° 0 mm 2 m/S 757 mmHg 55%
03:00 +14°C° 0 mm 1 m/S 757 mmHg 56%
04:00 +14°C° 0 mm 1 m/S 758 mmHg 56%
05:00 +15°C° 0 mm 1 m/S 758 mmHg 54%
06:00 +16°C° 0 mm 1 m/S 758 mmHg 53%
07:00 +19°C° 0 mm 1 m/S 759 mmHg 51%
08:00 +20°C° 0 mm 1 m/S 759 mmHg 47%
09:00 +22°C° 0 mm 1 m/S 759 mmHg 43%
10:00 +24°C° 0 mm 1 m/S 759 mmHg 38%
11:00 +25°C° 0 mm 1 m/S 759 mmHg 36%
12:00 +25°C° 0 mm 1 m/S 759 mmHg 33%
13:00 +26°C° 0 mm 1 m/S 759 mmHg 31%
14:00 +26°C° 0 mm 1 m/S 759 mmHg 30%
15:00 +26°C° 0 mm 2 m/S 759 mmHg 30%
16:00 +26°C° 0 mm 2 m/S 759 mmHg 29%
17:00 +25°C° 0 mm 2 m/S 759 mmHg 36%
18:00 +23°C° 0 mm 2 m/S 759 mmHg 43%
19:00 +20°C° 0 mm 2 m/S 760 mmHg 49%
20:00 +19°C° 0 mm 2 m/S 760 mmHg 49%
21:00 +18°C° 0 mm 2 m/S 760 mmHg 49%
22:00 +16°C° 0 mm 1 m/S 760 mmHg 48%
23:00 +16°C° 0 mm 1 m/S 760 mmHg 50%

Morgen, 12 Mai, Mittwoch

Zeit Temperatur Niederschläge Wind Luftdruck Luftfeuchtigkeit
00:00 +15°C° 0 mm 1 m/S 761 mmHg 51%
01:00 +14°C° 0 mm 1 m/S 761 mmHg 53%
02:00 +14°C° 0 mm 1 m/S 761 mmHg 54%
03:00 +14°C° 0 mm 1 m/S 761 mmHg 56%
04:00 +13°C° 0 mm 1 m/S 761 mmHg 57%
05:00 +15°C° 0 mm 1 m/S 761 mmHg 55%
06:00 +16°C° 0 mm 1 m/S 762 mmHg 52%
07:00 +18°C° 0 mm 1 m/S 762 mmHg 50%
08:00 +20°C° 0 mm 1 m/S 762 mmHg 45%
09:00 +22°C° 0 mm 1 m/S 762 mmHg 40%
10:00 +24°C° 0 mm 1 m/S 762 mmHg 35%
11:00 +25°C° 0 mm 1 m/S 762 mmHg 33%
12:00 +25°C° 0 mm 2 m/S 762 mmHg 32%
13:00 +26°C° 0 mm 2 m/S 762 mmHg 31%
14:00 +26°C° 0 mm 2 m/S 762 mmHg 31%
15:00 +26°C° 0 mm 2 m/S 761 mmHg 32%
16:00 +26°C° 0 mm 2 m/S 761 mmHg 33%
17:00 +25°C° 0 mm 2 m/S 761 mmHg 39%
18:00 +23°C° 0 mm 1 m/S 761 mmHg 46%
19:00 +22°C° 0 mm 1 m/S 761 mmHg 52%
20:00 +20°C° 0 mm 1 m/S 761 mmHg 54%
21:00 +19°C° 0 mm 1 m/S 761 mmHg 55%
22:00 +16°C° 0 mm 0 m/S 761 mmHg 56%
23:00 +15°C° 0 mm 0 m/S 761 mmHg 58%

übermorgen, 13 Mai, Donnerstag

Zeit Temperatur Niederschläge Wind Luftdruck Luftfeuchtigkeit
00:00 +14°C° 0 mm 0 m/S 761 mmHg 60%
01:00 +14°C° 0 mm 0 m/S 761 mmHg 62%
02:00 +13°C° 0 mm 0 m/S 761 mmHg 63%
03:00 +13°C° 0 mm 0 m/S 762 mmHg 65%
04:00 +13°C° 0 mm 0 m/S 762 mmHg 66%
05:00 +14°C° 0 mm 0 m/S 762 mmHg 63%
06:00 +16°C° 0 mm 0 m/S 762 mmHg 60%
07:00 +17°C° 0 mm 0 m/S 762 mmHg 57%
08:00 +21°C° 0 mm 1 m/S 762 mmHg 52%
09:00 +23°C° 0 mm 1 m/S 762 mmHg 48%
10:00 +25°C° 0 mm 1 m/S 762 mmHg 43%
11:00 +26°C° 0 mm 1 m/S 761 mmHg 40%
12:00 +27°C° 0 mm 1 m/S 761 mmHg 37%
13:00 +28°C° 0 mm 1 m/S 761 mmHg 34%
14:00 +28°C° 0 mm 1 m/S 761 mmHg 34%
15:00 +28°C° 0 mm 2 m/S 760 mmHg 34%
16:00 +28°C° 0 mm 2 m/S 760 mmHg 34%
17:00 +27°C° 0 mm 2 m/S 760 mmHg 41%
18:00 +25°C° 0 mm 1 m/S 760 mmHg 48%
19:00 +24°C° 0 mm 1 m/S 760 mmHg 55%
20:00 +22°C° 0 mm 1 m/S 760 mmHg 58%
21:00 +21°C° 0 mm 1 m/S 760 mmHg 60%
22:00 +19°C° 0 mm 1 m/S 760 mmHg 63%
23:00 +19°C° 0 mm 1 m/S 760 mmHg 64%

14 Mai, Freitag

Zeit Temperatur Niederschläge Wind Luftdruck Luftfeuchtigkeit
00:00 +18°C° 0 mm 1 m/S 760 mmHg 66%
01:00 +18°C° 0 mm 1 m/S 761 mmHg 67%
02:00 +16°C° 0 mm 1 m/S 761 mmHg 68%
03:00 +16°C° 0 mm 1 m/S 761 mmHg 68%
04:00 +15°C° 0 mm 1 m/S 761 mmHg 68%
05:00 +18°C° 0 mm 1 m/S 761 mmHg 64%
06:00 +19°C° 0 mm 1 m/S 761 mmHg 61%
07:00 +21°C° 0 mm 1 m/S 761 mmHg 57%
08:00 +22°C° 0 mm 1 m/S 761 mmHg 52%
09:00 +24°C° 0 mm 1 m/S 761 mmHg 46%
10:00 +26°C° 0 mm 2 m/S 761 mmHg 41%
11:00 +27°C° 0 mm 2 m/S 761 mmHg 38%
12:00 +27°C° 0 mm 2 m/S 761 mmHg 35%
13:00 +28°C° 0 mm 3 m/S 760 mmHg 32%
14:00 +28°C° 0 mm 3 m/S 760 mmHg 31%
15:00 +28°C° 0 mm 2 m/S 760 mmHg 31%
16:00 +28°C° 0 mm 2 m/S 760 mmHg 30%
17:00 +27°C° 0 mm 2 m/S 760 mmHg 37%
18:00 +25°C° 0 mm 2 m/S 760 mmHg 44%
19:00 +24°C° 0 mm 1 m/S 759 mmHg 51%
20:00 +23°C° 0 mm 2 m/S 759 mmHg 52%
21:00 +20°C° 0 mm 2 m/S 759 mmHg 53%
22:00 +19°C° 0 mm 2 m/S 759 mmHg 53%
23:00 +18°C° 0 mm 2 m/S 759 mmHg 55%

15 Mai, Samstag

Zeit Temperatur Niederschläge Wind Luftdruck Luftfeuchtigkeit
00:00 +18°C° 0 mm 2 m/S 759 mmHg 56%
01:00 +17°C° 0 mm 2 m/S 759 mmHg 57%
02:00 +16°C° 0 mm 2 m/S 759 mmHg 58%
03:00 +16°C° 0 mm 1 m/S 759 mmHg 59%
04:00 +16°C° 0 mm 1 m/S 759 mmHg 60%
05:00 +18°C° 0 mm 1 m/S 759 mmHg 58%
06:00 +20°C° 0 mm 1 m/S 759 mmHg 56%
07:00 +21°C° 0 mm 1 m/S 760 mmHg 54%
08:00 +23°C° 0 mm 1 m/S 759 mmHg 49%
09:00 +25°C° 0 mm 2 m/S 759 mmHg 45%
10:00 +27°C° 0 mm 2 m/S 759 mmHg 40%
11:00 +28°C° 0 mm 2 m/S 759 mmHg 38%
12:00 +28°C° 0 mm 2 m/S 758 mmHg 35%
13:00 +29°C° 0 mm 3 m/S 758 mmHg 33%
14:00 +29°C° 0 mm 2 m/S 758 mmHg 33%
15:00 +29°C° 0 mm 2 m/S 758 mmHg 32%
16:00 +29°C° 0 mm 2 m/S 758 mmHg 32%
17:00 +28°C° 0 mm 2 m/S 757 mmHg 38%
18:00 +26°C° 0 mm 2 m/S 757 mmHg 45%
19:00 +25°C° 0 mm 1 m/S 757 mmHg 51%
20:00 +23°C° 0 mm 2 m/S 757 mmHg 52%
21:00 +21°C° 0 mm 2 m/S 757 mmHg 52%
22:00 +19°C° 0 mm 2 m/S 757 mmHg 53%
23:00 +19°C° 0 mm 2 m/S 756 mmHg 54%

16 Mai, Sonntag

Zeit Temperatur Niederschläge Wind Luftdruck Luftfeuchtigkeit
00:00 +19°C° 0 mm 1 m/S 756 mmHg 55%
01:00 +18°C° 0 mm 1 m/S 756 mmHg 57%
02:00 +18°C° 0 mm 1 m/S 756 mmHg 57%
03:00 +18°C° 0 mm 1 m/S 756 mmHg 58%
04:00 +16°C° 0 mm 1 m/S 756 mmHg 59%
05:00 +19°C° 0 mm 1 m/S 756 mmHg 58%
06:00 +20°C° 0 mm 1 m/S 756 mmHg 56%
07:00 +22°C° 0 mm 1 m/S 757 mmHg 54%
08:00 +24°C° 0 mm 2 m/S 756 mmHg 49%
09:00 +26°C° 0 mm 2 m/S 756 mmHg 44%
10:00 +28°C° 0 mm 2 m/S 756 mmHg 38%
11:00 +29°C° 0 mm 2 m/S 756 mmHg 36%
12:00 +30°C° 0 mm 2 m/S 756 mmHg 34%
13:00 +30°C° 0 mm 3 m/S 755 mmHg 31%
14:00 +30°C° 0 mm 3 m/S 755 mmHg 32%
15:00 +30°C° 0 mm 3 m/S 755 mmHg 33%
16:00 +30°C° 0 mm 3 m/S 754 mmHg 34%
17:00 +29°C° 0 mm 3 m/S 754 mmHg 40%
18:00 +27°C° 0 mm 2 m/S 754 mmHg 46%
19:00 +26°C° 0 mm 2 m/S 754 mmHg 52%
20:00 +25°C° 0 mm 2 m/S 754 mmHg 52%
21:00 +24°C° 0 mm 2 m/S 754 mmHg 52%
22:00 +21°C° 0 mm 2 m/S 754 mmHg 52%
23:00 +21°C° 0 mm 2 m/S 754 mmHg 55%
Mehr zeigen

Wir brauchen deine Erlaubnis

Meteoprog und unser Service Anbieter werden persönliche Daten aufbewahren, so wie Cookies, Geräte Bezeichnung oder ähnliche Technologien von deinem Gerät und Prozess, so wie Persönliche Daten Inhalte und Werbungen, genauso wie social Media und den Verkehr zu analysieren.

  • Aufbewahrung und/oder Zugang zu deiner Geräte Informationen.

    Cookies, Geräte Bezeichnung oder andere Informationen, können aufbewahrt oder Zugang zu deinem Gerät erhalten, für den Grund, der oben angegeben wird.

  • Personalisierte Werbung und Inhalte, Messungen, Einblick in das Publikum und Produkt Entwicklung.

    Werbungen und Inhalte können personalisiert werden, basierend auf ein Profil. Mehr Daten können besser personalisierte Werbungen und Inhalte hinzufügen. Werbung und Inhalte können gezeigt und gemessen werden. Einblicke über das Publikum, welche die Werbung gesehen haben und den Inhalt, können abgeleitet werden. So wie Daten können genutzt werden, um es zu verbessern oder die Benutzer Erfahrung zu verbessern das System und die Software.

Wenn du “Ich stimme zu” klickst, erlaubst du uns, die Cookies zu benutzen die Geräte Bezeichnung, den Web oder ähnliche Technologien zu benutzen. Deine Settings, können in deinem Gerät bei deinem Browser geändert werden.

Für den bestimmten Zweck, berechtigten Interessen beruhen darauf, mehr als auf den Inhalt. Du kannst mehr darüber in unseren Privaten und Cookie Politik lesen.